Carrollton, GA

4:41 AM EST on January 20, 2018 (GMT -0500)
West Georgia Regional-Gray

Weather History for KCTJ - December, 2012

Change the Weather History Date:

Friday, December 21, 2012

  Actual Average Record
Temperature  
Mean Temperature 38 °F -  
Max Temperature 44 °F 54 °F 81 °F (1971)
Min Temperature 32 °F 34 °F 18 °F (1954)
Degree Days  
Heating Degree Days 27    
Moisture  
Dew Point 20 °F    
Average Humidity 49    
Maximum Humidity 65    
Minimum Humidity 34    
Precipitation  
Precipitation 0.00 in - - ()
Sea Level Pressure  
Sea Level Pressure 30.07 in    
Wind  
Wind Speed 12 mph (WNW)    
Max Wind Speed 18 mph    
Max Gust Speed 29 mph    
Visibility 10 miles    
Events      
Averages and records for this station are not official NWS values.
T = Trace of Precipitation, MM = Missing Value Source: NWS Daily Summary

Daily Weather History Graph

Daily Weather History Graph

Search for Another Location

Airport or City:

Trip Planner

Search our weather history database for the weather conditions in past years. The results will help you decide how hot, cold, wet, or windy it might be!

Date:

Astronomy

Dec. 21, 2012 Rise Set
Actual Time 7:41 AM EST 5:36 PM EST
Civil Twilight 7:13 AM EST 6:04 PM EST
Nautical Twilight 6:42 AM EST 6:35 PM EST
Astronomical Twilight 6:12 AM EST 7:05 PM EST
Moon 1:12 PM EST (12/21) 1:39 AM EST (12/21)
Length of Visible Light 10h 50m
Length of Day
9h 55m
Waxing Gibbous, 64% of the Moon is Illuminated
Dec 21
Waxing Gibbous
Dec 28
Full
Jan 4
Last Quarter
Jan 11
New
Jan 18
First Quarter

Hourly Weather History & Observations

Time (EST) Temp. Windchill Dew Point Humidity Pressure Visibility Wind Dir Wind Speed Gust Speed Precip Events Conditions
12:15 AM 41.0 °F 34.7 °F 30.2 °F 65% 29.94 in 10.0 mi West 10.4 mph 18.4 mph N/A   Overcast
12:35 AM 41.0 °F 33.1 °F 28.4 °F 61% 29.94 in 10.0 mi West 15.0 mph 21.9 mph N/A   Overcast
12:55 AM 41.0 °F 32.8 °F 28.4 °F 61% 29.95 in 10.0 mi West 16.1 mph 26.5 mph N/A   Overcast
1:15 AM 41.0 °F 34.7 °F 26.6 °F 57% 29.95 in 10.0 mi WNW 10.4 mph 23.0 mph N/A   Overcast
1:35 AM 39.2 °F 31.2 °F 23.0 °F 52% 29.96 in 10.0 mi NW 13.8 mph 23.0 mph N/A   Mostly Cloudy
1:55 AM 37.4 °F 32.8 °F 23.0 °F 56% 29.96 in 10.0 mi WNW 5.8 mph 18.4 mph N/A   Clear
2:15 AM 35.6 °F 26.6 °F 23.0 °F 60% 29.96 in 10.0 mi WNW 13.8 mph 21.9 mph N/A   Clear
2:35 AM 35.6 °F 27.1 °F 23.0 °F 60% 29.97 in 10.0 mi WNW 12.7 mph 23.0 mph N/A   Clear
2:55 AM 35.6 °F 27.1 °F 21.2 °F 56% 29.97 in 10.0 mi WNW 12.7 mph 20.7 mph N/A   Clear
3:15 AM 35.6 °F 29.9 °F 23.0 °F 60% 29.98 in 10.0 mi WNW 6.9 mph 17.3 mph N/A   Clear
3:35 AM 35.6 °F 29.9 °F 23.0 °F 60% 29.98 in 10.0 mi WNW 6.9 mph 16.1 mph N/A   Scattered Clouds
3:55 AM 33.8 °F 25.3 °F 23.0 °F 65% 29.98 in 10.0 mi West 11.5 mph 16.1 mph N/A   Scattered Clouds
4:15 AM 33.8 °F 26.4 °F 23.0 °F 65% 29.99 in 10.0 mi WNW 9.2 mph 16.1 mph N/A   Clear
4:35 AM 33.8 °F 24.8 °F 21.2 °F 60% 29.99 in 10.0 mi WNW 12.7 mph 21.9 mph N/A   Clear
4:55 AM 33.8 °F 24.8 °F 21.2 °F 60% 29.99 in 10.0 mi WNW 12.7 mph 24.2 mph N/A   Clear
5:15 AM 33.8 °F 24.3 °F 21.2 °F 60% 29.99 in 10.0 mi WNW 13.8 mph 28.8 mph N/A   Clear
5:35 AM 33.8 °F 25.3 °F 19.4 °F 56% 29.99 in 10.0 mi WNW 11.5 mph 18.4 mph N/A   Clear
5:55 AM 33.8 °F 24.3 °F 21.2 °F 60% 30.00 in 10.0 mi West 13.8 mph 24.2 mph N/A   Clear
6:15 AM 33.8 °F 24.8 °F 19.4 °F 56% 30.01 in 10.0 mi West 12.7 mph 20.7 mph N/A   Clear
6:35 AM 33.8 °F 25.3 °F 19.4 °F 56% 30.02 in 10.0 mi West 11.5 mph 21.9 mph N/A   Clear
6:55 AM 33.8 °F 25.3 °F 19.4 °F 56% 30.03 in 10.0 mi West 11.5 mph 20.7 mph N/A   Clear
7:15 AM 32.0 °F 22.1 °F 19.4 °F 60% 30.03 in 10.0 mi West 13.8 mph 20.7 mph N/A   Clear
7:35 AM 32.0 °F 22.1 °F 19.4 °F 60% 30.04 in 10.0 mi WNW 13.8 mph 23.0 mph N/A   Clear
7:55 AM 32.0 °F 23.6 °F 19.4 °F 60% 30.04 in 10.0 mi WNW 10.4 mph 25.3 mph N/A   Clear
8:15 AM 32.0 °F 25.6 °F 19.4 °F 60% 30.05 in 10.0 mi WNW 6.9 mph 17.3 mph N/A   Clear
8:35 AM 33.8 °F 23.9 °F 19.4 °F 56% 30.05 in 10.0 mi NW 15.0 mph 21.9 mph N/A   Clear
8:55 AM 33.8 °F 24.3 °F 19.4 °F 56% 30.06 in 10.0 mi WNW 13.8 mph 20.7 mph N/A   Clear
9:15 AM 33.8 °F 23.5 °F 19.4 °F 56% 30.06 in 10.0 mi WNW 16.1 mph 24.2 mph N/A   Clear
9:35 AM 35.6 °F 26.2 °F 19.4 °F 52% 30.07 in 10.0 mi NW 15.0 mph 26.5 mph N/A   Clear
9:55 AM 35.6 °F 26.2 °F 19.4 °F 52% 30.08 in 10.0 mi WNW 15.0 mph 26.5 mph N/A   Clear
10:15 AM 35.6 °F 25.5 °F 19.4 °F 52% 30.09 in 10.0 mi WNW 17.3 mph 25.3 mph N/A   Clear
10:35 AM 37.4 °F 29.3 °F 19.4 °F 48% 30.09 in 10.0 mi WNW 12.7 mph 24.2 mph N/A   Clear
10:55 AM 37.4 °F 27.8 °F 19.4 °F 48% 30.09 in 10.0 mi NW 17.3 mph 24.2 mph N/A   Clear
11:15 AM 39.2 °F 32.0 °F 19.4 °F 45% 30.09 in 10.0 mi WNW 11.5 mph 23.0 mph N/A   Clear
11:35 AM 39.2 °F 31.6 °F 19.4 °F 45% 30.09 in 10.0 mi NW 12.7 mph 26.5 mph N/A   Clear
11:55 AM 41.0 °F 32.2 °F 19.4 °F 42% 30.09 in 10.0 mi NW 18.4 mph 26.5 mph N/A   Clear
12:15 PM 41.0 °F 32.5 °F 19.4 °F 42% 30.08 in 10.0 mi NW 17.3 mph 24.2 mph N/A   Clear
12:35 PM 41.0 °F 33.9 °F 19.4 °F 42% 30.07 in 10.0 mi NW 12.7 mph 23.0 mph N/A   Clear
12:55 PM 42.8 °F 35.4 °F 19.4 °F 39% 30.07 in 10.0 mi NW 15.0 mph 24.2 mph N/A   Clear
1:15 PM 42.8 °F 36.2 °F 19.4 °F 39% 30.06 in 10.0 mi WNW 12.7 mph 27.6 mph N/A   Clear
1:35 PM 42.8 °F 36.6 °F 19.4 °F 39% 30.06 in 10.0 mi WNW 11.5 mph 26.5 mph N/A   Clear
1:55 PM 42.8 °F 35.8 °F 19.4 °F 39% 30.06 in 10.0 mi NW 13.8 mph 25.3 mph N/A   Clear
2:15 PM 44.6 °F 37.4 °F 19.4 °F 37% 30.06 in 10.0 mi WNW 16.1 mph 28.8 mph N/A   Clear
2:35 PM 44.6 °F 37.8 °F 17.6 °F 34% 30.06 in 10.0 mi WNW 15.0 mph 21.9 mph N/A   Clear
2:55 PM 44.6 °F 38.1 °F 17.6 °F 34% 30.06 in 10.0 mi WNW 13.8 mph 26.5 mph N/A   Clear
3:15 PM 44.6 °F 38.4 °F 17.6 °F 34% 30.06 in 10.0 mi WNW 12.7 mph 27.6 mph N/A   Clear
3:35 PM 44.6 °F 37.8 °F 17.6 °F 34% 30.07 in 10.0 mi WNW 15.0 mph 23.0 mph N/A   Clear
3:55 PM 44.6 °F 38.1 °F 17.6 °F 34% 30.07 in 10.0 mi WNW 13.8 mph 28.8 mph N/A   Clear
4:15 PM 44.6 °F 37.8 °F 17.6 °F 34% 30.08 in 10.0 mi NW 15.0 mph 19.6 mph N/A   Clear
4:35 PM 44.6 °F 38.1 °F 17.6 °F 34% 30.09 in 10.0 mi WNW 13.8 mph 21.9 mph N/A   Clear
4:55 PM 42.8 °F 36.6 °F 17.6 °F 36% 30.10 in 10.0 mi NW 11.5 mph 17.3 mph N/A   Clear
5:15 PM 42.8 °F 37.0 °F 17.6 °F 36% 30.10 in 10.0 mi WNW 10.4 mph 18.4 mph N/A   Clear
5:35 PM 41.0 °F 35.2 °F 17.6 °F 39% 30.10 in 10.0 mi WNW 9.2 mph - N/A   Clear
5:55 PM 41.0 °F 35.2 °F 17.6 °F 39% 30.12 in 10.0 mi NW 9.2 mph 16.1 mph N/A   Clear
6:15 PM 39.2 °F 35.0 °F 17.6 °F 42% 30.14 in 10.0 mi WNW 5.8 mph - N/A   Clear
6:35 PM 39.2 °F 34.2 °F 17.6 °F 42% 30.14 in 10.0 mi WNW 6.9 mph - N/A   Clear
6:55 PM 37.4 °F 32.8 °F 17.6 °F 45% 30.15 in 10.0 mi WNW 5.8 mph - N/A   Clear
7:15 PM 37.4 °F 32.8 °F 17.6 °F 45% 30.15 in 10.0 mi NW 5.8 mph - N/A   Clear
7:35 PM 37.4 °F 32.8 °F 17.6 °F 45% 30.16 in 10.0 mi NW 5.8 mph - N/A   Clear
7:55 PM 37.4 °F 31.4 °F 17.6 °F 45% 30.16 in 10.0 mi NW 8.1 mph - N/A   Clear
8:15 PM 37.4 °F 32.1 °F 17.6 °F 45% 30.16 in 10.0 mi NW 6.9 mph - N/A   Clear
8:35 PM 37.4 °F 30.8 °F 17.6 °F 45% 30.16 in 10.0 mi WNW 9.2 mph - N/A   Clear
8:55 PM 35.6 °F 29.9 °F 17.6 °F 48% 30.17 in 10.0 mi WNW 6.9 mph - N/A   Clear
9:15 PM 35.6 °F 29.2 °F 17.6 °F 48% 30.17 in 10.0 mi NW 8.1 mph - N/A   Clear
9:35 PM 35.6 °F 29.2 °F 17.6 °F 48% 30.17 in 10.0 mi NW 8.1 mph 17.3 mph N/A   Clear
9:55 PM 35.6 °F 28.6 °F 15.8 °F 44% 30.17 in 10.0 mi NW 9.2 mph 16.1 mph N/A   Clear
10:15 PM 35.6 °F 30.7 °F 15.8 °F 44% 30.19 in 10.0 mi NW 5.8 mph - N/A   Clear
10:35 PM 35.6 °F 28.6 °F 15.8 °F 44% 30.19 in 10.0 mi NW 9.2 mph - N/A   Clear
10:55 PM 35.6 °F 28.6 °F 15.8 °F 44% 30.19 in 10.0 mi WNW 9.2 mph - N/A   Clear
11:15 PM 35.6 °F 29.9 °F 15.8 °F 44% 30.20 in 10.0 mi WNW 6.9 mph - N/A   Clear
11:35 PM 33.8 °F 28.6 °F 15.8 °F 48% 30.20 in 10.0 mi WNW 5.8 mph - N/A   Clear
11:55 PM 33.8 °F 25.3 °F 15.8 °F 48% 30.21 in 10.0 mi WNW 11.5 mph 16.1 mph N/A   Clear